www.pogodaiklimat.ru

Погода и климат >> Архив погоды >> Таиланд >> Такфа Агромет


ПОГОДА в Такфа Агромете

  • Прогноз погоды в Такфа Агромете
  • Монитор погоды в Такфа Агромете

АРХИВ ПОГОДЫ в Такфа Агромете

Время (UTC), дата Ветер
(напр.,м/с)
 
Видим.   Явления Облачность Т
(С)
Тd
(С)
f
(%)
Тe
(С)
Тes
(С)
Комфортность P
(гПа)
Po
(гПа)
Тmin
(С)
Tmax
(С)
R
(мм)
R24
(мм)
S
(см)
09 17.04 Ю 4 8000 м мгла 3/3 600 м
[Cu med, cong Cs]
+39.0 +21.9 38 +47 +51 опасность
перегрева
1005.6 995.3
12 17.04 штиль 0 6000 м мгла 3/1 600 м
[Cb cap Ac lent Ci ing]
+35.8 +22.8 47 +45 +45 опасность
перегрева
1005.9 995.5 +40.0
15 17.04 штиль 0 6000 м мгла 3/0
[Cs]
+33.0 +23.7 58 +44 +44 опасность
перегрева
1009.0 998.5
18 17.04 штиль 0 6000 м дымка 3/0
[Cs]
+30.0 +24.3 72 +42 +42 опасность
перегрева
1008.7 998.1
21 17.04 Ю 2 5000 м дымка 3/0
[Cs]
+28.5 +25.7 85 +42 +42 опасность
перегрева
1007.4 996.7
00 18.04 штиль 0 6000 м дымка 3/0
[Cs]
+29.0 +26.2 85 +44 +46 опасность
перегрева
1010.0 999.3 +28.3
03 18.04 штиль 0 6000 м мгла 3/0
[Cs]
+33.5 +25.8 64 +49 +68 опасность
перегрева
1010.6 1000.1
06 18.04 Ю 3 7000 м мгла 3/0
[Cs]
+38.5 +24.4 45 +50 +67 опасность
перегрева
1007.9 997.6
09 18.04 Ю 8 6000 м мгла 9/5 600 м
[Cb cap Ac lent Cs]
+32.5 +19.6 47 +38 +39 очень
душно
1005.4 994.9
12 18.04 штиль 0 6000 м мгла 4/3 600 м
[Sc Cs]
+33.5 +20.9 48 +41 +41 опасность
перегрева
1006.6 996.2 +41.2
15 18.04 штиль 0 6000 м дымка 3/0
[Cs]
+31.0 +23.8 66 +43 +43 опасность
перегрева
1007.8 997.3
18 18.04 штиль 0 6000 м дымка 3/0
[Cs]
+30.0 +24.3 72 +42 +42 опасность
перегрева
1007.3 996.7
21 18.04 штиль 0 6000 м дымка 3/0
[Cs]
+28.5 +24.2 78 +40 +40 очень
душно
1006.6 996.0
00 19.04 штиль 0 6000 м дымка 5/0
[Cs]
+28.8 +26.3 86 +44 +45 опасность
перегрева
1007.6 997.0 +28.2
03 19.04 штиль 0 6000 м мгла 3/0
[Cs]
+33.5 +25.0 61 +47 +67 опасность
перегрева
1009.3 998.8
06 19.04 Ю 5 6000 м мгла 3/0
[Cs]
+38.5 +22.7 40 +47 +58 опасность
перегрева
1007.0 996.8
09 19.04 Ю 2 7000 м мгла 3/0
[Cs]
+39.5 +20.4 33 +45 +52 опасность
перегрева
1003.7 993.5
12 19.04 штиль 0 6000 м мгла 3/0
[Cs]
+36.5 +21.1 41 +44 +44 опасность
перегрева
1004.1 993.8 +40.2
15 19.04 штиль 0 6000 м мгла 3/0
[Cs]
+32.5 +23.9 61 +44 +44 опасность
перегрева
1007.7 997.2
18 19.04 штиль 0 6000 м дымка 3/0
[Cs]
+30.0 +24.3 72 +42 +42 опасность
перегрева
1007.4 996.8
21 19.04 штиль 0 6000 м дымка 3/0
[Cs]
+29.2 +25.4 80 +43 +43 опасность
перегрева
1005.5 994.9
00 20.04 штиль 0 6000 м дымка 5/0
[Cs]
+29.0 +26.2 85 +44 +45 опасность
перегрева
1006.5 995.9 +28.5
03 20.04 штиль 0 8000 м мгла 3/1 600 м
[Cu hum Cs]
+33.7 +25.7 63 +49 +67 опасность
перегрева
1008.5 998.1
06 20.04 Ю 2 8000 м мгла 1/0
[Cs]
+39.0 +21.6 37 +46 +68 опасность
перегрева
1005.2 994.9
09 20.04 Ю 2 8000 м мгла 1/0
[Cs]
+40.8 +18.6 28 +45 +52 опасность
перегрева
1001.7 991.6
12 20.04 штиль 0 6000 м мгла 1/0
[Cs]
+36.0 +17.5 34 +39 +39 очень
душно
1002.4 992.1 +41.0
15 20.04 штиль 0 6000 м мгла 1/0
[Cs]
+31.0 +20.5 54 +38 +38 очень
душно
1004.9 994.4
18 20.04 штиль 0 6000 м дымка 1/0
[Cs]
+30.3 +23.0 65 +40 +40 очень
душно
1005.0 994.4
21 20.04 Ю 2 6000 м дымка 1/0
[Cs]
+29.1 +24.8 78 +42 +42 опасность
перегрева
1004.1 993.5
00 21.04 ЮВ 4 8000 м дымка ясно +29.3 +25.3 79 +43 +44 опасность
перегрева
1005.9 995.3 +28.8
03 21.04 Ю 5 8000 м мгла 1/1 600 м
[Cu hum]
+34.3 +25.9 62 +50 +57 опасность
перегрева
1007.1 996.7
06 21.04 Ю 6 7000 м мгла 3/3 600 м
[Cu med, cong]
+38.7 +23.9 43 +50 +55 опасность
перегрева
1004.8 994.6
09 21.04 Ю 8 7000 м мгла 3/3 600 м
[Cu hum]
+39.4 +21.0 35 +46 +47 опасность
перегрева
1002.1 991.9
12 21.04 Ю 2 6000 м мгла 3/1 600 м
[Cb cap Ci ing]
+35.3 +22.2 47 +44 +44 опасность
перегрева
1003.2 992.8 +40.2
15 21.04 штиль 0 6000 м мгла 1/0
[Cs]
+33.2 +22.1 52 +42 +42 опасность
перегрева
1005.9 995.5
18 21.04 штиль 0 5000 м мгла 1/0
[Cs]
+30.7 +23.1 64 +41 +41 опасность
перегрева
1004.8 994.3
21 21.04 штиль 0 5000 м дымка 1/0
[Cs]
+29.0 +24.7 78 +41 +41 опасность
перегрева
1004.8 994.2
00 22.04 Ю 2 7000 м дымка 1/0
[Cs]
+28.5 +24.2 78 +40 +41 очень
душно
1006.7 996.1 +28.0
03 22.04 Ю 2 7000 м мгла 4/3 600 м
[Cu hum Ac trans Cs]
+33.3 +25.4 63 +48 +58 опасность
перегрева
1008.2 997.7
06 22.04 Ю 4 8000 м мгла 3/3 600 м
[Cu hum Cs]
+38.1 +23.8 44 +49 +59 опасность
перегрева
1005.5 995.2
09 22.04 ЮВ 4 6000 м гроза, ливневой дождь 6/5 600 м
[Cb cap Ac As Cs]
+28.0 +22.9 74 +37 +40 очень
душно
1006.0 995.4 0.0
12 22.04 штиль 0 6000 м мгла {гроза} 10/3 600 м
[Cb cap Ac As Cs]
+29.0 +21.6 64 +37 +37 очень
душно
1006.6 996.0 +39.8 0.3
15 22.04 СВ 10 5000 м гроза без осадков 9/4 600 м
[Cb cap Ac As Cs]
+29.0 +21.9 66 +37 +37 очень
душно
1010.1 999.5
18 22.04 штиль 0 5000 м гроза, ливневой дождь 10/8 600 м
[Cb cap Ac As]
+25.2 +23.1 88 +34 +34 очень
душно
1011.0 1000.3 4
21 22.04 штиль 0 5000 м слаб. дождь {гроза} 10/5 600 м
[Cb cap Ac As]
+24.2 +23.3 95 +32 +32 очень
душно
1009.5 998.7 9
00 23.04 штиль 0 6000 м дымка {гроза, дождь} 10/8 600 м
[Sc Ac As]
+24.4 +23.7 96 +33 +33 очень
душно
1009.9 999.1 +24.0 0.2
03 23.04 СЗ 4 7000 м дымка 9/4 600 м
[Sc Ac As]
+28.0 +24.1 79 +39 +41 очень
душно
1010.9 1000.2
06 23.04 штиль 0 8000 м мгла 9/4 600 м
[Sc Ac As Cs]
+31.0 +23.0 62 +41 +51 опасность
перегрева
1010.0 999.5
09 23.04 штиль 0 9000 м мгла 3/0
[Cs]
+34.5 +24.1 55 +47 +56 опасность
перегрева
1007.0 996.5
12 23.04 штиль 0 7000 м дымка 3/1 600 м
[Cb cap Ci fib]
+31.7 +24.4 65 +44 +44 опасность
перегрева
1006.9 996.4 +35.0
15 23.04 штиль 0 6000 м дымка 3/3 600 м
[Cu hum Cs]
+28.5 +25.7 85 +42 +42 опасность
перегрева
1009.8 999.1
18 23.04 штиль 0 6000 м дымка 5/0
[Cs]
+26.6 +24.0 86 +37 +37 очень
душно
1009.3 998.6
21 23.04 штиль 0 6000 м дымка 3/0
[Cs]
+25.7 +23.9 90 +35 +35 очень
душно
1009.0 998.2
00 24.04 штиль 0 7000 м дымка 1/0
[Cs]
+26.6 +25.3 93 +39 +40 очень
душно
1010.8 1000.0 +25.5
03 24.04 ЮЗ 2 8000 м мгла ясно +34.5 +23.0 51 +44 +60 опасность
перегрева
1011.0 1000.6
06 24.04 Ю 2 9000 м мгла 3/3 600 м
[Cu hum Cs]
+38.5 +21.3 37 +45 +61 опасность
перегрева
1008.4 998.1

 

Местоположение метеостанции Такфа Агромет (Таиланд): широта 15.35 долгота 100.50 высота над уровнем моря 87 м.

В архиве по умолчанию представлена погода в Такфа Агромете за последнюю неделю. Архивные данные за месяц целиком и за предыдущие месяцы, начиная с января 2011 года, Вы можете получить, выбрав интересующий диапазон дат из раскрывающегося списка и нажав кнопку "Ввод!".


*Определитесь, кто Вы:
робот инопланетянин человек

Внимание! Время в таблицах - всемирное. Для получения местного времени необходимо прибавить поправку, которая равна 7 ч.

Смотрите также архив погоды в соседних городах и на ближайших метеорологических станциях:

Погода в Чайнат Агромете (Таиланд) (41 км)
Погода в Утай Тани (Таиланд) (49 км)
Погода в Лаем-Чабанге (Таиланд) (51 км)
Погода в Накхон Саван (Таиланд) (62 км)
Погода в Лопбури (Таиланд) (62 км)
Погода в Вичан Бури (Таиланд) (72 км)
Погода в Буа Чум (Таиланд) (73 км)
Погода в Аюттхая (Таиланд) (95 км)
Погода в Сарабури (Таиланд) (103 км)
Погода в Суфанбури (Таиланд) (106 км)

Пояснения к столбцам:

Ветер - указаны скорость ветра в м/с - средняя за 10 мин, порывы в срок и между сроками (в фигурных скобках) и направление, откуда дует ветер: С - северный, СВ - северо-восточный, В - восточный, ЮВ - юго-восточный, Ю - южный, ЮЗ - юго-западный, З - западный, СЗ - северо-западный.
Видимость - горизонтальная дальность видимости в метрах или километрах. При видимости от 1 до 10 км при отсутствии осадков обычно наблюдается дымка, при ухудшении видимости до 1 км и менее - туман. В сухую погоду видимость может ухудшаться дымом, пылью или мглою.
Явления - указаны атмосферные явления, наблюдавшиеся в срок или в последний час перед сроком; фигурными скобками обозначены явления, наблюдавшиеся между сроками (за 1-3 часа до срока); квадратными скобками обозначены град или гололедные отложения с указанием их диаметра в мм.
Облачность - указаны через наклонную черту общая и нижняя облачность в баллах и высота нижней границы облаков в метрах; квадратными скобками обозначены формы облаков: Ci - перистые, Cs - перисто-слоистые, Cc - перисто-кучевые, Ac - высококучевые, As - высокослоистые, Sc - слоисто-кучевые, Ns - слоисто-дождевые, Cu - кучевые, Cb - кучево-дождевые. Подробнее классификацию облаков см. в Атласе облаков (PDF).
T - Температура воздуха - температура, измеренная на высоте 2 м над землей.
Td - Температура точки росы - температура, при понижении до которой содержащийся в воздухе водяной пар достигнет насыщения.
f - Относительная влажность воздуха - влажноcть воздуха, измеренная на высоте 2 м над землей.
Te - Эффективная температура - температура, которую ощущает одетый по сезону человек в тени. Характеристика душности погоды. При расчете учитывается влияние влажности воздуха и скорости ветра на теплоощущения человека.
Tes - Эффективная температура на солнце - температура, которую ощущает человек, с поправкой на солнечный нагрев. Характеристика знойности погоды. Зависит от высоты солнца над горизонтом, облачности и скорости ветра. Ночью, в пасмурную погоду, а также при ветре 12 м/с и более поправка равна нулю.
P - Атмосферное давление - приведенное к уровню моря атмосферное давление.
Po - Атмосферное давление - измеренное на уровне метеостанции атмосферное давление.
Tmin - Минимальная температура - минимум температуры воздуха на высоте 2 м над землей.
Tmax - Максимальная температура - максимум температуры воздуха на высоте 2 м над землей.
R - Количество осадков - Количество выпавших осадков за период времени, мм. При наведении курсора мыши на число - период времени, за который выпало указанное количество осадков.
R24 - Количество осадков - Количество выпавших осадков за 24 часа, мм.
S - Снежный покров - Высота снежного покрова, см. При наведении курсора мыши на число - состояние снежного покрова и степень покрытия местности в баллах.